QPF
0.06 0.07 0.07 0.08 0.07 0.06 0.07 0.07 0.08 0.07 0.08 0.07 0.10 0.11 0.10 0.08 0.06 0.06 0.06 0.07 0.05 0.06 0.08 0.06 0.06 0.06 0.08 0.10 0.10 0.09 0.07 0.07 0.06 0.05 0.04 0.04 0.04 0.04 0.04 0.04 0.03 0.03 0.03
0.07 0.08 0.07 0.07 0.07 0.07 0.07 0.06 0.06 0.06 0.06 0.06 0.05 0.06 0.10 0.07 0.04 0.05 0.06 0.06 0.05 0.05 0.07 0.06 0.06 0.06 0.08 0.08 0.09 0.08 0.07 0.06 0.06 0.05 0.04 0.03 0.03 0.03 0.03 0.03 0.03 0.02 0.02
0.06 0.08 0.08 0.09 0.08 0.09 0.09 0.07 0.06 0.05 0.05 0.05 0.05 0.04 0.05 0.04 0.03 0.04 0.05 0.06 0.06 0.05 0.05 0.04 0.04 0.05 0.07 0.07 0.07 0.07 0.06 0.06 0.06 0.05 0.04 0.04 0.03 0.03 0.03 0.03 0.04 0.03 0.02
0.06 0.07 0.09 0.10 0.10 0.10 0.11 0.08 0.07 0.07 0.06 0.07 0.07 0.06 0.05 0.05 0.04 0.05 0.05 0.05 0.06 0.06 0.05 0.03 0.02 0.04 0.05 0.06 0.05 0.05 0.04 0.04 0.05 0.04 0.04 0.03 0.03 0.03 0.03 0.03 0.03 0.03 0.03
0.05 0.08 0.10 0.11 0.10 0.10 0.10 0.07 0.06 0.06 0.08 0.10 0.09 0.08 0.06 0.06 0.05 0.04 0.05 0.06 0.06 0.06 0.05 0.03 0.02 0.02 0.03 0.05 0.04 0.04 0.04 0.04 0.05 0.04 0.04 0.04 0.03 0.03 0.02 0.03 0.03 0.03 0.02
0.06 0.08 0.09 0.09 0.08 0.09 0.10 0.09 0.07 0.07 0.08 0.10 0.11 0.11 0.09 0.07 0.05 0.05 0.05 0.06 0.05 0.04 0.03 0.03 0.03 0.02 0.03 0.03 0.05 0.04 0.04 0.04 0.05 0.05 0.04 0.05 0.05 0.03 0.03 0.03 0.04 0.03 0.02
0.06 0.07 0.09 0.09 0.08 0.08 0.08 0.09 0.11 0.11 0.09 0.11 0.13 0.10 0.08 0.07 0.05 0.05 0.05 0.06 0.06 0.04 0.04 0.03 0.03 0.04 0.04 0.04 0.04 0.04 0.04 0.05 0.06 0.06 0.04 0.04 0.06 0.05 0.03 0.03 0.03 0.03 0.02
0.06 0.07 0.08 0.07 0.08 0.09 0.09 0.10 0.11 0.14 0.14 0.12 0.14 0.12 0.10 0.10 0.07 0.05 0.05 0.06 0.06 0.06 0.05 0.04 0.05 0.06 0.07 0.06 0.06 0.05 0.05 0.05 0.06 0.07 0.05 0.05 0.06 0.05 0.04 0.03 0.03 0.03 0.02
0.08 0.08 0.07 0.06 0.07 0.07 0.09 0.11 0.11 0.12 0.14 0.14 0.13 0.14 0.14 0.12 0.08 0.07 0.06 0.06 0.06 0.07 0.07 0.06 0.06 0.06 0.07 0.09 0.07 0.07 0.07 0.06 0.06 0.06 0.06 0.06 0.06 0.06 0.05 0.04 0.04 0.04 0.03
0.08 0.08 0.07 0.07 0.06 0.07 0.09 0.09 0.11 0.10 0.12 0.12 0.12 0.12 0.12 0.09 0.08 0.08 0.08 0.06 0.06 0.07 0.06 0.06 0.06 0.06 0.05 0.07 0.10 0.11 0.10 0.08 0.07 0.06 0.06 0.07 0.08 0.07 0.05 0.05 0.05 0.06 0.06
0.05 0.06 0.07 0.08 0.06 0.06 0.07 0.08 0.11 0.10 0.11 0.10 0.11 0.10 0.08 0.07 0.06 0.06 0.08 0.07 0.08 0.08 0.07 0.07 0.06 0.06 0.06 0.07 0.07 0.07 0.08 0.08 0.07 0.06 0.06 0.07 0.08 0.09 0.07 0.07 0.06 0.07 0.08
0.05 0.06 0.07 0.07 0.06 0.07 0.08 0.08 0.09 0.09 0.11 0.11 0.10 0.11 0.09 0.07 0.06 0.06 0.07 0.07 0.08 0.08 0.08 0.06 0.05 0.06 0.06 0.05 0.05 0.05 0.05 0.06 0.06 0.06 0.05 0.06 0.09 0.09 0.11 0.10 0.09 0.08 0.09
0.05 0.06 0.08 0.07 0.08 0.08 0.08 0.09 0.10 0.11 0.12 0.12 0.11 0.11 0.12 0.09 0.07 0.06 0.06 0.06 0.07 0.07 0.07 0.07 0.05 0.06 0.06 0.04 0.04 0.05 0.04 0.04 0.04 0.04 0.04 0.05 0.07 0.08 0.07 0.09 0.09 0.08 0.08
0.05 0.06 0.08 0.08 0.08 0.08 0.08 0.10 0.10 0.09 0.09 0.08 0.09 0.10 0.12 0.13 0.09 0.06 0.06 0.06 0.06 0.08 0.10 0.08 0.06 0.06 0.07 0.06 0.05 0.06 0.04 0.03 0.03 0.03 0.03 0.03 0.04 0.05 0.05 0.05 0.05 0.06 0.06
0.06 0.07 0.08 0.08 0.06 0.06 0.07 0.09 0.08 0.08 0.08 0.05 0.06 0.08 0.09 0.13 0.11 0.09 0.07 0.07 0.08 0.08 0.09 0.11 0.08 0.08 0.09 0.08 0.07 0.05 0.05 0.03 0.02 0.02 0.02 0.01 0.01 0.02 0.02 0.02 0.03 0.03 0.04
0.10 0.09 0.08 0.07 0.05 0.05 0.07 0.08 0.08 0.08 0.07 0.06 0.06 0.06 0.05 0.07 0.09 0.09 0.09 0.09 0.09 0.10 0.10 0.09 0.08 0.10 0.12 0.09 0.06 0.05 0.05 0.05 0.03 0.02 0.02 0.02 0.01 0.01 0.02 0.02 0.03 0.02 0.03
0.11 0.11 0.09 0.08 0.05 0.05 0.08 0.09 0.08 0.08 0.07 0.06 0.06 0.06 0.05 0.07 0.08 0.08 0.08 0.08 0.09 0.10 0.12 0.10 0.09 0.11 0.12 0.11 0.09 0.06 0.04 0.04 0.04 0.03 0.02 0.02 0.02 0.02 0.02 0.02 0.02 0.02 0.02
0.08 0.09 0.09 0.09 0.08 0.08 0.10 0.09 0.07 0.07 0.06 0.05 0.07 0.08 0.08 0.08 0.08 0.09 0.09 0.08 0.08 0.11 0.11 0.10 0.10 0.11 0.10 0.10 0.09 0.07 0.04 0.04 0.04 0.04 0.03 0.02 0.03 0.02 0.02 0.02 0.02 0.02 0.02
0.08 0.09 0.08 0.08 0.09 0.10 0.10 0.09 0.08 0.08 0.07 0.06 0.07 0.08 0.07 0.08 0.08 0.09 0.08 0.08 0.08 0.08 0.10 0.09 0.09 0.10 0.09 0.08 0.09 0.07 0.05 0.05 0.03 0.03 0.03 0.02 0.02 0.02 0.02 0.02 0.02 0.02 0.02
0.05 0.09 0.10 0.09 0.09 0.09 0.08 0.08 0.08 0.08 0.07 0.06 0.06 0.06 0.05 0.06 0.07 0.07 0.07 0.08 0.08 0.08 0.08 0.09 0.09 0.08 0.07 0.06 0.08 0.07 0.06 0.04 0.04 0.04 0.03 0.02 0.02 0.01 0.01 0.01 0.01 0.02 0.02
0.03 0.06 0.07 0.07 0.08 0.07 0.06 0.05 0.07 0.07 0.07 0.06 0.06 0.06 0.04 0.04 0.04 0.04 0.03 0.05 0.06 0.05 0.05 0.05 0.05 0.05 0.05 0.05 0.05 0.05 0.05 0.04 0.04 0.03 0.02 0.02 0.02 0.02 0.01 0.01 0.01 0.01 0.01
0.05 0.05 0.06 0.05 0.04 0.03 0.03 0.02 0.03 0.05 0.06 0.06 0.06 0.04 0.03 0.03 0.02 0.01 0.01 0.02 0.03 0.04 0.05 0.05 0.05 0.04 0.04 0.05 0.04 0.04 0.04 0.04 0.04 0.03 0.04 0.02 0.02 0.03 0.03 0.03 0.02 0.01 0.01
0.05 0.05 0.05 0.04 0.03 0.03 0.03 0.02 0.02 0.03 0.04 0.05 0.04 0.03 0.03 0.02 0.02 0.01 0.02 0.01 0.01 0.02 0.03 0.04 0.04 0.03 0.03 0.05 0.05 0.04 0.05 0.05 0.04 0.03 0.04 0.03 0.02 0.03 0.02 0.01 0.02 0.03 0.02
0.06 0.06 0.05 0.04 0.03 0.03 0.02 0.01 0.02 0.02 0.03 0.03 0.03 0.03 0.03 0.03 0.03 0.02 0.02 0.02 0.02 0.02 0.01 0.02 0.03 0.03 0.03 0.04 0.04 0.04 0.04 0.04 0.04 0.03 0.03 0.03 0.02 0.02 0.02 0.01 0.01 0.02 0.02
0.06 0.06 0.06 0.05 0.03 0.03 0.02 0.02 0.02 0.03 0.04 0.03 0.04 0.04 0.03 0.02 0.02 0.02 0.02 0.02 0.02 0.01 0.00 0.01 0.01 0.01 0.01 0.01 0.01 0.02 0.03 0.03 0.03 0.03 0.04 0.03 0.02 0.03 0.03 0.02 0.01 0.02 0.02
0.05 0.07 0.08 0.06 0.04 0.04 0.03 0.02 0.02 0.03 0.04 0.04 0.05 0.05 0.03 0.02 0.02 0.02 0.03 0.02 0.03 0.02 0.01 0.01 0.01 0.01 0.01 0.01 0.01 0.02 0.03 0.04 0.04 0.04 0.03 0.03 0.03 0.03 0.03 0.03 0.02 0.02 0.02
MSLP
1013.06 1013.39 1013.65 1013.88 1014.08 1014.27 1014.48 1014.69 1014.88 1015.04 1015.15 1015.19 1015.17 1015.11 1015.05 1015.02 1015.05 1015.17 1015.36 1015.61 1015.90 1016.17 1016.42 1016.61 1016.75 1016.83 1016.89 1016.93 1016.97 1017.01 1017.06 1017.11 1017.16 1017.20 1017.24 1017.29 1017.37 1017.48 1017.63 1017.84 1018.09 1018.38 1018.71
1013.05 1013.39 1013.67 1013.92 1014.14 1014.36 1014.57 1014.79 1014.99 1015.16 1015.29 1015.35 1015.36 1015.32 1015.28 1015.25 1015.27 1015.35 1015.50 1015.71 1015.95 1016.20 1016.43 1016.61 1016.75 1016.84 1016.89 1016.92 1016.93 1016.93 1016.93 1016.92 1016.92 1016.91 1016.92 1016.95 1017.01 1017.11 1017.25 1017.44 1017.68 1017.96 1018.27
1013.09 1013.44 1013.75 1014.02 1014.27 1014.51 1014.74 1014.96 1015.17 1015.35 1015.48 1015.57 1015.59 1015.58 1015.54 1015.50 1015.49 1015.52 1015.61 1015.75 1015.92 1016.11 1016.30 1016.47 1016.61 1016.71 1016.78 1016.81 1016.81 1016.79 1016.76 1016.72 1016.68 1016.64 1016.62 1016.62 1016.66 1016.74 1016.86 1017.03 1017.25 1017.50 1017.80
1013.17 1013.54 1013.87 1014.17 1014.44 1014.70 1014.94 1015.16 1015.37 1015.54 1015.69 1015.78 1015.82 1015.81 1015.78 1015.72 1015.67 1015.65 1015.66 1015.71 1015.80 1015.92 1016.06 1016.21 1016.34 1016.45 1016.54 1016.59 1016.61 1016.60 1016.56 1016.51 1016.44 1016.38 1016.33 1016.31 1016.32 1016.36 1016.45 1016.59 1016.78 1017.01 1017.27
1013.30 1013.67 1014.02 1014.35 1014.64 1014.90 1015.13 1015.34 1015.53 1015.70 1015.83 1015.93 1015.98 1015.99 1015.95 1015.89 1015.81 1015.72 1015.66 1015.62 1015.63 1015.67 1015.76 1015.87 1015.99 1016.12 1016.23 1016.31 1016.37 1016.38 1016.35 1016.30 1016.23 1016.15 1016.07 1016.01 1015.98 1015.99 1016.03 1016.12 1016.26 1016.45 1016.69
1013.46 1013.83 1014.19 1014.53 1014.82 1015.08 1015.30 1015.49 1015.65 1015.79 1015.91 1016.01 1016.07 1016.09 1016.07 1016.01 1015.90 1015.78 1015.65 1015.54 1015.47 1015.44 1015.46 1015.53 1015.64 1015.77 1015.91 1016.03 1016.11 1016.16 1016.16 1016.12 1016.05 1015.95 1015.85 1015.75 1015.66 1015.61 1015.60 1015.62 1015.71 1015.84 1016.04
1013.62 1013.99 1014.36 1014.70 1014.99 1015.23 1015.43 1015.59 1015.72 1015.84 1015.94 1016.04 1016.12 1016.16 1016.17 1016.12 1016.02 1015.88 1015.71 1015.55 1015.40 1015.30 1015.26 1015.29 1015.37 1015.49 1015.64 1015.78 1015.90 1015.98 1016.01 1015.98 1015.90 1015.79 1015.66 1015.51 1015.37 1015.25 1015.16 1015.11 1015.12 1015.19 1015.34
1013.76 1014.13 1014.50 1014.84 1015.13 1015.36 1015.53 1015.66 1015.77 1015.86 1015.96 1016.06 1016.16 1016.25 1016.29 1016.28 1016.21 1016.07 1015.89 1015.68 1015.48 1015.32 1015.22 1015.19 1015.23 1015.33 1015.47 1015.61 1015.74 1015.84 1015.88 1015.87 1015.79 1015.66 1015.49 1015.30 1015.09 1014.90 1014.73 1014.59 1014.52 1014.53 1014.61
1013.84 1014.21 1014.59 1014.94 1015.24 1015.46 1015.62 1015.74 1015.82 1015.90 1016.00 1016.13 1016.26 1016.39 1016.49 1016.53 1016.49 1016.38 1016.19 1015.97 1015.73 1015.51 1015.34 1015.25 1015.23 1015.29 1015.39 1015.52 1015.64 1015.73 1015.78 1015.76 1015.67 1015.53 1015.33 1015.09 1014.83 1014.56 1014.30 1014.09 1013.94 1013.87 1013.89
1013.85 1014.23 1014.63 1014.99 1015.30 1015.54 1015.71 1015.82 1015.90 1015.99 1016.10 1016.25 1016.42 1016.60 1016.75 1016.85 1016.86 1016.78 1016.61 1016.37 1016.09 1015.83 1015.60 1015.43 1015.35 1015.33 1015.38 1015.46 1015.55 1015.61 1015.64 1015.61 1015.51 1015.35 1015.13 1014.85 1014.54 1014.22 1013.89 1013.61 1013.37 1013.23 1013.19
1013.76 1014.17 1014.58 1014.98 1015.32 1015.58 1015.77 1015.90 1016.00 1016.10 1016.24 1016.41 1016.62 1016.85 1017.05 1017.19 1017.25 1017.20 1017.04 1016.80 1016.50 1016.19 1015.90 1015.66 1015.49 1015.40 1015.37 1015.38 1015.41 1015.44 1015.43 1015.38 1015.27 1015.09 1014.86 1014.57 1014.23 1013.86 1013.49 1013.14 1012.84 1012.63 1012.53
1013.57 1014.01 1014.46 1014.89 1015.27 1015.57 1015.79 1015.96 1016.08 1016.21 1016.37 1016.57 1016.81 1017.07 1017.31 1017.49 1017.58 1017.55 1017.41 1017.17 1016.86 1016.51 1016.16 1015.86 1015.61 1015.43 1015.31 1015.24 1015.20 1015.16 1015.12 1015.04 1014.92 1014.74 1014.51 1014.21 1013.87 1013.49 1013.09 1012.69 1012.34 1012.07 1011.91
1013.30 1013.76 1014.25 1014.73 1015.15 1015.49 1015.76 1015.96 1016.12 1016.27 1016.45 1016.67 1016.93 1017.21 1017.46 1017.66 1017.77 1017.77 1017.64 1017.40 1017.08 1016.71 1016.33 1015.96 1015.64 1015.37 1015.17 1015.01 1014.89 1014.80 1014.70 1014.60 1014.47 1014.29 1014.07 1013.80 1013.47 1013.09 1012.68 1012.26 1011.87 1011.55 1011.33
1012.96 1013.45 1013.97 1014.49 1014.95 1015.34 1015.65 1015.89 1016.08 1016.25 1016.45 1016.67 1016.93 1017.20 1017.46 1017.67 1017.79 1017.80 1017.69 1017.46 1017.15 1016.77 1016.36 1015.96 1015.58 1015.25 1014.96 1014.73 1014.53 1014.37 1014.23 1014.09 1013.96 1013.79 1013.60 1013.35 1013.04 1012.68 1012.28 1011.84 1011.42 1011.05 1010.77
1012.59 1013.11 1013.65 1014.20 1014.70 1015.13 1015.48 1015.75 1015.96 1016.15 1016.35 1016.56 1016.81 1017.06 1017.31 1017.51 1017.64 1017.66 1017.57 1017.37 1017.08 1016.71 1016.30 1015.88 1015.47 1015.08 1014.73 1014.43 1014.17 1013.94 1013.76 1013.59 1013.45 1013.29 1013.12 1012.90 1012.63 1012.29 1011.89 1011.45 1011.00 1010.58 1010.25
1012.21 1012.75 1013.32 1013.90 1014.43 1014.89 1015.27 1015.56 1015.79 1015.98 1016.17 1016.37 1016.59 1016.82 1017.05 1017.24 1017.37 1017.41 1017.35 1017.19 1016.93 1016.60 1016.21 1015.80 1015.37 1014.95 1014.56 1014.19 1013.87 1013.59 1013.36 1013.17 1013.01 1012.86 1012.70 1012.51 1012.26 1011.94 1011.55 1011.09 1010.61 1010.15 1009.76
1011.85 1012.41 1013.01 1013.61 1014.17 1014.66 1015.06 1015.37 1015.61 1015.80 1015.97 1016.15 1016.34 1016.55 1016.76 1016.94 1017.07 1017.14 1017.11 1017.00 1016.79 1016.51 1016.16 1015.77 1015.35 1014.91 1014.49 1014.08 1013.71 1013.38 1013.10 1012.88 1012.70 1012.55 1012.40 1012.22 1011.98 1011.67 1011.27 1010.80 1010.29 1009.78 1009.32
1011.52 1012.11 1012.74 1013.37 1013.96 1014.47 1014.89 1015.21 1015.46 1015.64 1015.80 1015.96 1016.13 1016.31 1016.50 1016.68 1016.82 1016.91 1016.93 1016.87 1016.72 1016.50 1016.20 1015.84 1015.43 1015.00 1014.55 1014.11 1013.70 1013.33 1013.01 1012.75 1012.55 1012.38 1012.23 1012.04 1011.81 1011.49 1011.09 1010.59 1010.05 1009.49 1008.98
1011.20 1011.83 1012.50 1013.17 1013.79 1014.33 1014.77 1015.11 1015.36 1015.54 1015.69 1015.83 1015.97 1016.14 1016.32 1016.49 1016.65 1016.77 1016.83 1016.82 1016.73 1016.57 1016.32 1015.99 1015.61 1015.18 1014.72 1014.26 1013.82 1013.41 1013.06 1012.77 1012.54 1012.35 1012.18 1011.99 1011.75 1011.42 1011.00 1010.49 1009.92 1009.32 1008.77
1010.90 1011.58 1012.30 1013.00 1013.66 1014.23 1014.69 1015.05 1015.31 1015.49 1015.63 1015.76 1015.89 1016.04 1016.21 1016.39 1016.56 1016.71 1016.81 1016.84 1016.80 1016.68 1016.47 1016.18 1015.82 1015.40 1014.94 1014.46 1014.00 1013.57 1013.19 1012.88 1012.63 1012.42 1012.24 1012.04 1011.78 1011.45 1011.02 1010.50 1009.91 1009.30 1008.72
1010.62 1011.35 1012.11 1012.85 1013.54 1014.14 1014.63 1015.00 1015.27 1015.46 1015.59 1015.71 1015.83 1015.98 1016.14 1016.32 1016.50 1016.67 1016.79 1016.86 1016.85 1016.76 1016.59 1016.32 1015.97 1015.56 1015.11 1014.63 1014.16 1013.72 1013.33 1013.01 1012.75 1012.54 1012.35 1012.14 1011.89 1011.57 1011.15 1010.63 1010.05 1009.44 1008.85
1010.34 1011.12 1011.92 1012.69 1013.41 1014.03 1014.53 1014.92 1015.20 1015.39 1015.53 1015.64 1015.76 1015.90 1016.06 1016.24 1016.43 1016.60 1016.73 1016.81 1016.82 1016.75 1016.59 1016.34 1016.00 1015.60 1015.16 1014.69 1014.23 1013.80 1013.42 1013.10 1012.85 1012.64 1012.46 1012.27 1012.04 1011.74 1011.35 1010.87 1010.31 1009.73 1009.16
1010.09 1010.89 1011.71 1012.50 1013.23 1013.86 1014.37 1014.76 1015.05 1015.24 1015.39 1015.51 1015.63 1015.77 1015.92 1016.10 1016.28 1016.45 1016.58 1016.66 1016.67 1016.59 1016.43 1016.19 1015.86 1015.47 1015.04 1014.59 1014.15 1013.75 1013.39 1013.10 1012.87 1012.70 1012.55 1012.39 1012.20 1011.94 1011.60 1011.17 1010.68 1010.15 1009.62
1009.87 1010.68 1011.49 1012.27 1012.98 1013.60 1014.11 1014.50 1014.79 1015.00 1015.15 1015.29 1015.41 1015.55 1015.71 1015.88 1016.05 1016.20 1016.32 1016.38 1016.37 1016.29 1016.12 1015.87 1015.55 1015.18 1014.76 1014.34 1013.93 1013.56 1013.25 1013.00 1012.81 1012.68 1012.57 1012.47 1012.33 1012.13 1011.86 1011.51 1011.10 1010.64 1010.18
1009.69 1010.47 1011.25 1011.99 1012.67 1013.27 1013.76 1014.15 1014.44 1014.66 1014.84 1014.98 1015.13 1015.28 1015.44 1015.60 1015.76 1015.89 1015.99 1016.02 1015.99 1015.89 1015.71 1015.45 1015.13 1014.77 1014.38 1013.99 1013.62 1013.29 1013.02 1012.81 1012.68 1012.59 1012.54 1012.49 1012.41 1012.29 1012.10 1011.84 1011.51 1011.14 1010.77
1009.53 1010.26 1010.98 1011.67 1012.31 1012.86 1013.34 1013.72 1014.02 1014.27 1014.47 1014.64 1014.81 1014.98 1015.15 1015.31 1015.45 1015.57 1015.64 1015.65 1015.59 1015.46 1015.26 1015.00 1014.69 1014.33 1013.97 1013.61 1013.27 1012.98 1012.75 1012.59 1012.50 1012.46 1012.45 1012.45 1012.45 1012.40 1012.29 1012.11 1011.88 1011.60 1011.31
Thickness
5755 5755 5753 5752 5751 5750 5749 5748 5748 5748 5748 5749 5749 5749 5748 5748 5747 5745 5743 5741 5740 5739 5738 5736 5735 5734 5732 5731 5730 5729 5727 5726 5724 5723 5721 5720 5718 5716 5715 5713 5712 5711 5710
5754 5752 5750 5750 5749 5749 5748 5746 5746 5745 5746 5746 5746 5747 5746 5744 5745 5743 5741 5739 5738 5737 5736 5735 5734 5732 5731 5730 5729 5728 5726 5725 5723 5722 5720 5718 5717 5715 5713 5711 5710 5709 5708
5752 5750 5748 5747 5747 5746 5745 5745 5743 5743 5743 5743 5744 5744 5743 5743 5743 5742 5740 5738 5737 5736 5735 5734 5732 5731 5730 5729 5728 5726 5725 5723 5721 5720 5718 5717 5715 5713 5711 5710 5708 5707 5706
5750 5748 5746 5745 5745 5744 5742 5742 5741 5739 5738 5739 5739 5740 5741 5741 5741 5741 5739 5738 5737 5736 5734 5732 5731 5730 5730 5729 5727 5725 5723 5722 5720 5718 5716 5715 5713 5711 5709 5708 5706 5705 5704
5748 5746 5744 5743 5742 5742 5740 5740 5738 5737 5735 5735 5735 5736 5737 5738 5738 5738 5738 5737 5736 5735 5734 5732 5730 5729 5729 5728 5726 5724 5722 5720 5719 5717 5715 5713 5711 5709 5708 5706 5705 5703 5702
5746 5744 5743 5741 5740 5739 5737 5736 5734 5733 5732 5731 5732 5732 5733 5734 5734 5735 5735 5735 5735 5734 5733 5731 5729 5728 5727 5726 5724 5722 5720 5718 5717 5715 5713 5711 5709 5707 5706 5704 5703 5701 5700
5744 5742 5741 5739 5738 5736 5735 5733 5731 5729 5728 5728 5725 5724 5727 5730 5731 5732 5732 5732 5733 5732 5732 5731 5729 5728 5726 5724 5722 5720 5718 5717 5715 5713 5711 5709 5707 5705 5704 5702 5701 5699 5698
5741 5741 5738 5737 5735 5734 5732 5731 5729 5725 5724 5725 5721 5718 5715 5717 5723 5728 5728 5729 5729 5730 5730 5729 5728 5726 5724 5722 5720 5718 5716 5714 5712 5710 5709 5707 5705 5703 5701 5700 5698 5697 5695
5739 5738 5737 5735 5734 5732 5730 5728 5726 5723 5720 5721 5722 5718 5711 5708 5713 5719 5723 5725 5725 5726 5726 5726 5725 5724 5723 5720 5718 5716 5713 5711 5710 5708 5706 5704 5702 5700 5698 5697 5695 5694 5693
5736 5736 5734 5733 5731 5730 5728 5727 5725 5723 5720 5717 5719 5720 5718 5715 5709 5707 5714 5719 5721 5722 5722 5723 5723 5722 5720 5718 5716 5713 5710 5708 5706 5704 5702 5701 5699 5697 5695 5693 5692 5691 5690
5733 5733 5732 5730 5728 5727 5726 5724 5722 5720 5718 5716 5715 5715 5715 5714 5714 5707 5704 5709 5714 5717 5719 5719 5719 5718 5717 5715 5713 5710 5707 5705 5703 5701 5699 5697 5695 5693 5692 5690 5689 5687 5686
5729 5729 5729 5727 5726 5724 5723 5722 5719 5717 5716 5715 5713 5713 5711 5709 5707 5707 5703 5703 5705 5710 5714 5714 5715 5715 5713 5711 5709 5707 5704 5702 5700 5698 5696 5694 5692 5690 5688 5686 5685 5684 5683
5725 5726 5726 5724 5723 5722 5721 5719 5717 5715 5714 5712 5711 5710 5710 5709 5709 5708 5704 5702 5701 5703 5707 5709 5711 5711 5710 5708 5705 5703 5700 5698 5696 5693 5692 5690 5688 5686 5684 5682 5681 5680 5678
5724 5724 5723 5722 5721 5720 5719 5717 5714 5713 5712 5710 5709 5709 5708 5708 5708 5707 5703 5700 5695 5696 5699 5701 5705 5706 5705 5703 5701 5699 5695 5693 5691 5689 5687 5685 5683 5681 5680 5678 5677 5675 5673
5723 5722 5721 5719 5718 5716 5715 5714 5711 5710 5709 5708 5707 5706 5705 5705 5705 5705 5704 5701 5695 5689 5689 5694 5697 5701 5701 5699 5697 5694 5692 5689 5687 5685 5683 5681 5678 5676 5675 5673 5672 5670 5669
5721 5720 5719 5717 5715 5713 5712 5710 5709 5707 5706 5705 5704 5703 5702 5702 5702 5702 5701 5700 5698 5692 5687 5691 5693 5695 5695 5694 5692 5691 5689 5687 5684 5682 5679 5676 5674 5672 5670 5668 5667 5665 5664
5718 5717 5716 5714 5711 5710 5708 5707 5705 5704 5703 5702 5701 5700 5699 5698 5697 5697 5697 5696 5694 5691 5686 5687 5690 5691 5690 5689 5687 5686 5685 5683 5680 5678 5675 5672 5670 5667 5665 5664 5662 5660 5659
5715 5714 5713 5711 5709 5707 5705 5704 5702 5701 5699 5698 5697 5696 5695 5695 5693 5692 5691 5691 5690 5689 5686 5681 5682 5683 5683 5683 5683 5681 5681 5679 5677 5675 5671 5668 5666 5663 5661 5659 5657 5655 5654
5712 5710 5708 5707 5705 5703 5702 5700 5699 5698 5696 5695 5694 5693 5692 5691 5689 5688 5687 5686 5686 5686 5684 5680 5678 5678 5678 5678 5676 5675 5675 5673 5673 5670 5667 5665 5662 5659 5657 5655 5653 5651 5649
5708 5706 5705 5703 5701 5699 5697 5696 5695 5694 5692 5691 5690 5690 5689 5688 5687 5686 5684 5683 5682 5680 5679 5677 5674 5672 5672 5672 5670 5668 5666 5666 5666 5665 5663 5660 5658 5655 5653 5651 5649 5647 5644
5704 5702 5701 5699 5698 5695 5693 5691 5691 5690 5688 5686 5686 5685 5685 5684 5683 5683 5682 5680 5678 5676 5674 5672 5669 5667 5665 5664 5662 5663 5660 5660 5660 5660 5658 5656 5653 5650 5648 5646 5644 5642 5640
5700 5698 5696 5694 5692 5691 5687 5687 5686 5685 5684 5683 5682 5681 5681 5680 5679 5678 5677 5676 5674 5672 5670 5667 5664 5661 5660 5659 5658 5657 5655 5652 5651 5654 5653 5651 5650 5647 5645 5643 5641 5639 5637
5694 5692 5690 5689 5686 5684 5683 5682 5681 5680 5680 5679 5678 5677 5678 5677 5675 5674 5672 5671 5670 5668 5666 5663 5659 5657 5656 5655 5654 5651 5649 5647 5646 5649 5648 5645 5645 5643 5642 5640 5638 5636 5633
5688 5686 5685 5684 5681 5679 5678 5677 5676 5676 5676 5675 5674 5673 5672 5670 5670 5667 5667 5665 5664 5663 5662 5659 5657 5655 5654 5652 5650 5648 5646 5645 5645 5645 5643 5638 5639 5638 5638 5636 5634 5632 5630
5683 5681 5679 5678 5676 5674 5672 5672 5671 5672 5671 5670 5670 5669 5667 5664 5662 5661 5660 5659 5658 5657 5657 5655 5653 5651 5648 5646 5644 5641 5639 5637 5635 5636 5637 5634 5633 5633 5632 5630 5628 5627 5625
5678 5677 5675 5673 5672 5669 5667 5667 5666 5666 5665 5664 5664 5663 5661 5658 5656 5654 5653 5652 5650 5650 5649 5648 5646 5645 5644 5642 5640 5637 5634 5631 5629 5629 5631 5629 5627 5626 5623 5624 5623 5621 5619